Location: Lincolnton
(35.4660°N, 81.2500°W)
Time: 22:50:41
(UTC-05:00)

Hubble Space Telescope - Visible Passes

Search period start: 06 February 2016 00:00
Search period end: 16 February 2016 00:00
Orbit: 540 x 544 km, 28.5° (Epoch: 06 February)

Date Brightness Start Highest point End Pass type
(mag) Time Alt. Az. Time Alt. Az. Time Alt. Az.
10 Feb 3.3 20:16:34 10° SW 20:17:32 14° SSW 20:17:32 14° SSW visible
11 Feb 3.3 18:29:34 10° SSE 18:29:35 10° SSE 18:29:36 10° SSE visible
11 Feb 2.8 20:06:51 10° SW 20:08:47 20° SSW 20:08:47 20° SSW visible
12 Feb 2.4 19:57:14 10° SW 20:00:00 25° S 20:00:00 25° S visible
13 Feb 2.1 19:47:38 10° SW 19:51:13 28° S 19:51:13 28° S visible
14 Feb 2.0 19:38:05 10° WSW 19:41:44 30° S 19:42:24 28° SSE visible
15 Feb 2.0 19:28:34 10° WSW 19:32:15 31° S 19:33:35 25° SE visible
